{"data":{"norad_id":52444,"intl_designator":"2022-048B","name":"JILIN-1 GAOFEN 3D27","alt_names":[],"object_type":"PAYLOAD","status":"ACTIVE","operator":null,"country":"PRC","launch_date":"2022-05-05","launch_site_code":"TAISC","launch_vehicle":null,"mission":null,"orbit_class":"UNKNOWN","rcs_meters":null,"size_class":null,"mass_kg":null,"dimensions":null,"purposes":[],"wikipedia_slug":null,"has_3d_model":false,"image_url":null,"decayed_at":null,"tle_current":{"epoch":"2026-09-01T14:42:27.738720Z","epoch_age_seconds":1756161,"freshness":"OLD","line1":"1 52444U 22048B   26244.61282105  .06758385  26511-5  57698-3 0  9998","line2":"2 52444  97.5755   7.3594 0013223 276.9330  83.0464 16.39244389241627","mean_motion":16.39244389,"eccentricity":0.0013223,"inclination_deg":97.5755,"raan_deg":7.3594,"arg_perigee_deg":276.933,"mean_anomaly_deg":83.0464,"bstar":0.00057698,"rev_number":24162,"period_min":87.845351776891,"perigee_km":159.15759774317,"apogee_km":176.46901792728,"semimajor_km":6545.9503078352,"source":"CELESTRAK","updated_at":"2026-09-02T09:00:24.639750Z"}}}